Location: Tel Aviv
(32.0670°N, 34.7670°E)
Time: 12:58:54
(UTC+02:00)

Envisat - Pass Details

Date: 05 December 2021
Orbit: 764 x 766 km, 98.2° (Epoch: 20 January)

Event Time Altitude Azimuth Distance (km) Brightness Sun altitude
Rises 05:17:28 0° 0° (N) 3,235 6.1 -14.5°
Reaches altitude 10° 05:19:58 10° 351° (N) 2,305 5.2 -14.0°
Maximum altitude 05:24:28 33° 289° (WNW) 1,267 3.6 -13.1°
Drops below altitude 10° 05:28:57 10° 226° (SW) 2,293 5.2 -12.2°
Sets 05:31:26 0° 217° (SW) 3,215 6.0 -11.7°
